Flag for Netherlands Weather past 2 weeks in Enschede, Netherlands

Now
50 °F

Overcast.


Feels Like: 44 °F
Forecast: 45 / 65 °F
Wind: 17 mph from Southwest

Location: Deelen

Current Time: May 7, 2015 at 3:42:31 AM

Latest Report: May 7, 2015 at 2:55 AM


Visibility: N/A

Pressure: 29.89 "Hg

Humidity: 76%

Dew point: 43 °F

Location of EnschedeLocation

Historic Weather in Enschede — Graph

°F

Enschede temperature yesterday

Maximum temperature yesterday: 59 °F (at 1:55 PM)
Minimum temperature yesterday: 50 °F (at 3:25 AM)
Average temperature yesterday: 53 °F

Past Weeks' High & Low Weather Summary

 TemperatureHumidityPressure
High72 °F (May 5, 12:25 PM)100% (Apr 22, 2:55 AM)30.48 "Hg (Apr 22, 2:55 AM)
Low25 °F (Apr 28, 6:25 AM)31% (May 2, 3:25 PM)29.33 "Hg (May 5, 5:55 AM)
Average50 °F72%29.84 "Hg
* Reported Apr 22 2:25 AM — May 7 2:25 AM, Enschede, Weather by CustomWeather, © 2015

Note: Actual official high and low records may vary slightly from our data, if they occured in-between our weather recording intervals... More about our weather records

Advertising

Enschede weather history for previous 24 hours

 ConditionsComfort  
Time TempWeatherWind HumidityBarometerVisibility
2:25 AM
Thu, May 7
50 °FMostly cloudy.18 mph76%29.86 "HgN/A
1:55 AM52 °FMostly cloudy.18 mph67%29.86 "HgN/A
1:25 AM52 °FMostly cloudy.20 mph67%29.86 "HgN/A
12:55 AM52 °FPassing clouds.17 mph67%29.86 "HgN/A
12:25 AM52 °FPassing clouds.20 mph62%29.86 "HgN/A
11:55 PM
Wed, May 6
52 °FPassing clouds.18 mph62%29.86 "HgN/A
10:55 PM54 °FPassing clouds.18 mph58%29.83 "HgN/A
10:25 PM54 °FPassing clouds.18 mph58%29.83 "HgN/A
9:55 PM54 °FPassing clouds.18 mph58%29.83 "HgN/A
9:25 PM54 °FPassing clouds.14 mph63%29.83 "HgN/A
8:55 PM54 °FCool.15 mph63%29.80 "HgN/A
8:25 PM55 °FPassing clouds.16 mph59%29.80 "HgN/A
7:55 PM55 °FCool.13 mph67%29.80 "HgN/A
7:25 PM55 °FBroken clouds.13 mph72%29.80 "HgN/A
6:55 PM54 °FBroken clouds.12 mph77%29.80 "HgN/A
6:25 PM54 °FCool.14 mph77%29.80 "HgN/A
5:55 PM54 °FOvercast.15 mph77%29.80 "HgN/A
5:25 PM50 °FBroken clouds.12 mph88%29.80 "HgN/A
4:55 PM54 °FDrizzle. Broken clouds.10 mph77%29.77 "HgN/A
4:25 PM54 °FBroken clouds.10 mph77%29.77 "HgN/A
3:55 PM54 °FBroken clouds.8 mph77%29.77 "HgN/A
3:25 PM50 °FLight rain. Broken clouds.14 mph82%29.80 "HgN/A
2:55 PM54 °FDrizzle. Partly sunny.25 mph67%29.77 "HgN/A
2:25 PM59 °FBroken clouds.24 mph55%29.77 "HgN/A
1:55 PM59 °FPartly sunny.20 mph55%29.77 "HgN/A
1:25 PM57 °FBroken clouds.15 mph63%29.77 "HgN/A
1:02 PM57 °FBroken clouds.17 mph63%29.77 "HgN/A
12:25 PM57 °FBroken clouds.20 mph59%29.77 "HgN/A
11:55 AM57 °FBroken clouds.17 mph63%29.80 "HgN/A
11:25 AM55 °FBroken clouds.22 mph63%29.80 "HgN/A
10:55 AM55 °FBroken clouds.21 mph67%29.80 "HgN/A
10:25 AM55 °FBroken clouds.16 mph67%29.80 "HgN/A
9:55 AM55 °FPassing clouds.17 mph67%29.80 "HgN/A
9:25 AM54 °FPassing clouds.17 mph72%29.80 "HgN/A
8:55 AM54 °FCool.16 mph67%29.80 "HgN/A
8:25 AM52 °FCool.14 mph72%29.80 "HgN/A
7:55 AM52 °FPassing clouds.13 mph72%29.80 "HgN/A
7:25 AM50 °FPassing clouds.10 mph71%29.77 "HgN/A
6:55 AM50 °FPassing clouds.13 mph71%29.77 "HgN/A
6:25 AM50 °FCool.12 mph71%29.77 "HgN/A
5:55 AM50 °FPassing clouds.10 mph71%29.77 "HgN/A
4:55 AM50 °FPassing clouds.9 mph76%29.77 "HgN/A
4:25 AM50 °FPassing clouds.10 mph76%29.77 "HgN/A
3:55 AM50 °FCool.8 mph76%29.77 "HgN/A
3:25 AM50 °FPassing clouds.6 mph76%29.77 "HgN/A
Weather by CustomWeather, © 2015

See weather overviewHow to use our weather pages